Time,TemperatureF,DewpointF,PressureIn,WindDirection,WindDirectionDegrees,WindSpeedMPH,WindSpeedGustMPH,Humidity,HourlyPrecipIn,Conditions,Clouds,dailyrainin,SoftwareType,DateUTC
2013-03-27 00:02:00,51.0,39.0,29.78,SE,130,6.0,6.0,64,0.00,,,-99.99,,2013-03-27 07:02:00,
2013-03-27 00:12:00,51.0,39.0,29.78,SE,130,6.0,6.0,64,0.00,,,-99.99,,2013-03-27 07:12:00,
2013-03-27 00:22:00,51.0,39.0,29.78,SE,130,6.0,6.0,64,0.00,,,-99.99,,2013-03-27 07:22:00,
2013-03-27 00:32:00,51.0,39.0,29.81,SE,130,4.0,5.0,63,0.00,,,-99.99,,2013-03-27 07:32:00,
2013-03-27 00:43:00,51.0,39.0,29.81,SE,130,4.0,5.0,63,0.00,,,-99.99,,2013-03-27 07:43:00,
2013-03-27 00:53:00,50.0,39.0,29.76,SE,130,4.0,5.0,67,0.00,,,-99.99,,2013-03-27 07:53:00,
2013-03-27 01:02:00,50.0,39.0,29.76,SE,130,4.0,5.0,67,0.00,,,-99.99,,2013-03-27 08:02:00,
2013-03-27 01:12:00,50.0,39.0,29.76,SE,130,4.0,5.0,67,0.00,,,-99.99,,2013-03-27 08:12:00,
2013-03-27 01:22:00,50.0,39.0,29.76,SE,130,4.0,5.0,67,0.00,,,-99.99,,2013-03-27 08:22:00,
2013-03-27 01:32:00,50.0,39.0,29.77,SE,130,3.0,5.0,65,0.00,,,-99.99,,2013-03-27 08:32:00,
2013-03-27 01:43:00,50.0,39.0,29.77,SE,130,3.0,5.0,65,0.00,,,-99.99,,2013-03-27 08:43:00,
2013-03-27 01:52:00,51.0,39.0,29.74,North,-999,0.0,0.0,63,0.00,,,-99.99,,2013-03-27 08:52:00,
2013-03-27 02:01:00,51.0,39.0,29.74,North,-999,0.0,0.0,63,0.00,,,-99.99,,2013-03-27 09:01:00,
2013-03-27 02:12:00,51.0,39.0,29.74,North,-999,0.0,0.0,63,0.00,,,-99.99,,2013-03-27 09:12:00,
2013-03-27 02:22:00,51.0,39.0,29.74,North,-999,0.0,0.0,63,0.00,,,-99.99,,2013-03-27 09:22:00,
2013-03-27 02:32:00,53.0,38.0,29.73,North,0,0.0,1.0,57,0.00,,,-99.99,,2013-03-27 09:32:00,
2013-03-27 03:02:00,53.0,37.0,29.67,North,0,0.0,1.0,55,0.00,,,-99.99,,2013-03-27 10:02:00,
2013-03-27 03:32:00,53.0,37.0,29.66,SE,130,3.0,3.0,55,0.00,,,-99.99,,2013-03-27 10:32:00,
2013-03-27 03:53:00,52.0,36.0,29.69,North,-999,0.0,0.0,55,0.00,,,-99.99,,2013-03-27 10:53:00,
2013-03-27 04:02:00,52.0,36.0,29.69,North,-999,0.0,0.0,55,0.00,,,-99.99,,2013-03-27 11:02:00,
2013-03-27 04:22:00,52.0,36.0,29.69,North,-999,0.0,0.0,55,0.00,,,-99.99,,2013-03-27 11:22:00,
2013-03-27 04:32:00,52.0,36.0,29.69,North,-999,0.0,0.0,55,0.00,,,-99.99,,2013-03-27 11:32:00,
2013-03-27 05:02:00,51.0,35.0,29.75,North,-999,0.0,0.0,55,0.00,,,-99.99,,2013-03-27 12:02:00,
2013-03-27 05:12:00,51.0,35.0,29.75,North,-999,0.0,0.0,55,0.00,,,-99.99,,2013-03-27 12:12:00,
2013-03-27 05:22:00,51.0,35.0,29.75,North,-999,0.0,0.0,55,0.00,,,-99.99,,2013-03-27 12:22:00,
2013-03-27 05:32:00,51.0,36.0,29.73,North,-999,0.0,0.0,57,0.00,,,-99.99,,2013-03-27 12:32:00,
2013-03-27 05:43:00,51.0,36.0,29.73,North,-999,0.0,0.0,57,0.00,,,-99.99,,2013-03-27 12:43:00,
2013-03-27 05:52:00,48.0,39.0,29.81,SE,130,2.0,4.0,72,0.00,,,-99.99,,2013-03-27 12:52:00,
2013-03-27 06:02:00,48.0,39.0,29.81,SE,130,2.0,4.0,72,0.00,,,-99.99,,2013-03-27 13:02:00,
2013-03-27 06:12:00,48.0,39.0,29.81,SE,130,2.0,4.0,72,0.00,,,-99.99,,2013-03-27 13:12:00,
2013-03-27 06:22:00,48.0,39.0,29.81,SE,130,2.0,4.0,72,0.00,,,-99.99,,2013-03-27 13:22:00,
2013-03-27 06:32:00,48.0,37.0,29.81,SE,130,7.0,8.0,66,0.00,,,-99.99,,2013-03-27 13:32:00,
2013-03-27 06:42:00,48.0,37.0,29.81,SE,130,7.0,8.0,66,0.00,,,-99.99,,2013-03-27 13:42:00,
2013-03-27 06:53:00,48.0,37.0,29.81,SE,130,7.0,8.0,66,0.00,,,-99.99,,2013-03-27 13:53:00,
2013-03-27 07:02:00,50.0,36.0,29.84,ESE,120,2.0,2.0,58,0.00,,,-99.99,,2013-03-27 14:02:00,
2013-03-27 07:12:00,50.0,36.0,29.84,ESE,120,2.0,2.0,58,0.00,,,-99.99,,2013-03-27 14:12:00,
2013-03-27 07:22:00,49.0,36.0,29.83,North,-999,0.0,0.0,61,0.00,,,-99.99,,2013-03-27 14:22:00,
2013-03-27 07:32:00,49.0,36.0,29.83,North,-999,0.0,0.0,61,0.00,,,-99.99,,2013-03-27 14:32:00,
2013-03-27 07:42:00,49.0,36.0,29.83,North,-999,0.0,0.0,61,0.00,,,-99.99,,2013-03-27 14:42:00,
2013-03-27 07:52:00,51.0,37.0,29.85,North,-999,0.0,0.0,58,0.00,,,-99.99,,2013-03-27 14:52:00,
2013-03-27 08:02:00,51.0,37.0,29.85,North,-999,0.0,0.0,58,0.00,,,-99.99,,2013-03-27 15:02:00,
2013-03-27 08:22:00,53.0,37.0,29.86,North,-999,0.0,0.0,54,0.00,,,-99.99,,2013-03-27 15:22:00,
2013-03-27 08:32:00,53.0,37.0,29.86,North,-999,0.0,0.0,54,0.00,,,-99.99,,2013-03-27 15:32:00,
2013-03-27 09:01:00,52.0,40.0,29.84,North,-999,0.0,0.0,64,0.00,,,-99.99,,2013-03-27 16:01:00,
2013-03-27 09:02:00,55.0,39.0,29.78,ESE,120,1.0,1.0,55,0.00,,,-99.99,,2013-03-27 16:02:00,
2013-03-27 09:42:00,52.0,40.0,29.84,North,-999,0.0,0.0,64,0.00,,,-99.99,,2013-03-27 16:42:00,
2013-03-27 09:52:00,52.0,40.0,29.84,North,-999,0.0,0.0,64,0.00,,,-99.99,,2013-03-27 16:52:00,
2013-03-27 10:31:00,56.0,42.0,29.82,North,0,0.0,2.0,60,0.00,,,-99.99,,2013-03-27 17:31:00,
2013-03-27 10:32:00,53.0,42.0,29.86,SE,140,1.0,2.0,67,0.00,,,-99.99,,2013-03-27 17:32:00,
2013-03-27 10:44:00,53.0,42.0,29.86,SE,140,1.0,2.0,67,0.00,,,-99.99,,2013-03-27 17:44:00,
2013-03-27 10:52:00,53.0,42.0,29.86,SE,140,1.0,2.0,67,0.00,,,-99.99,,2013-03-27 17:52:00,
2013-03-27 11:02:00,56.0,42.0,29.82,North,0,0.0,2.0,60,0.00,,,-99.99,,2013-03-27 18:02:00,
2013-03-27 11:12:00,56.0,42.0,29.82,North,0,0.0,2.0,60,0.00,,,-99.99,,2013-03-27 18:12:00,
2013-03-27 11:22:00,56.0,42.0,29.82,North,0,0.0,2.0,60,0.00,,,-99.99,,2013-03-27 18:22:00,
2013-03-27 11:42:00,56.0,47.0,29.81,SE,140,1.0,1.0,71,0.00,,,-99.99,,2013-03-27 18:42:00,
2013-03-27 11:53:00,56.0,47.0,29.81,SE,140,1.0,1.0,71,0.00,,,-99.99,,2013-03-27 18:53:00,
2013-03-27 12:02:00,51.0,46.0,29.88,SE,140,1.0,1.0,84,0.00,,,-99.99,,2013-03-27 19:02:00,
2013-03-27 12:12:00,51.0,46.0,29.88,SE,140,1.0,1.0,84,0.00,,,-99.99,,2013-03-27 19:12:00,
2013-03-27 12:21:00,51.0,46.0,29.88,SE,140,1.0,1.0,84,0.00,,,-99.99,,2013-03-27 19:21:00,
2013-03-27 12:32:00,50.0,46.0,29.91,SSE,150,2.0,10.0,86,0.00,,,-99.99,,2013-03-27 19:32:00,
2013-03-27 12:42:00,50.0,46.0,29.91,SSE,150,2.0,10.0,86,0.00,,,-99.99,,2013-03-27 19:42:00,
2013-03-27 12:52:00,50.0,46.0,29.91,SSE,150,2.0,10.0,86,0.00,,,-99.99,,2013-03-27 19:52:00,
2013-03-27 13:02:00,50.0,45.0,29.91,SSE,150,12.0,13.0,84,0.00,,,-99.99,,2013-03-27 20:02:00,
2013-03-27 13:12:00,50.0,45.0,29.91,SSE,150,12.0,13.0,84,0.00,,,-99.99,,2013-03-27 20:12:00,
2013-03-27 13:22:00,51.0,45.0,29.91,SSE,150,7.0,12.0,81,0.00,,,-99.99,,2013-03-27 20:22:00,
2013-03-27 13:32:00,51.0,45.0,29.91,SSE,150,7.0,12.0,81,0.00,,,-99.99,,2013-03-27 20:32:00,
2013-03-27 13:43:00,51.0,45.0,29.91,SSE,150,7.0,12.0,81,0.00,,,-99.99,,2013-03-27 20:43:00,
2013-03-27 13:52:00,51.0,45.0,29.91,SSE,150,7.0,12.0,81,0.00,,,-99.99,,2013-03-27 20:52:00,
2013-03-27 14:02:00,52.0,45.0,29.86,SSE,160,9.0,14.0,78,0.00,,,-99.99,,2013-03-27 21:02:00,
2013-03-27 14:12:00,52.0,45.0,29.86,SSE,160,9.0,14.0,78,0.00,,,-99.99,,2013-03-27 21:12:00,
2013-03-27 14:22:00,53.0,45.0,29.83,SSE,160,8.0,13.0,73,0.00,,,-99.99,,2013-03-27 21:22:00,
2013-03-27 14:32:00,53.0,45.0,29.83,SSE,160,8.0,13.0,73,0.00,,,-99.99,,2013-03-27 21:32:00,
2013-03-27 14:43:00,53.0,45.0,29.83,SSE,160,8.0,13.0,73,0.00,,,-99.99,,2013-03-27 21:43:00,
2013-03-27 14:52:00,55.0,45.0,29.80,SSE,160,6.0,14.0,70,0.00,,,-99.99,,2013-03-27 21:52:00,
2013-03-27 15:02:00,55.0,45.0,29.80,SSE,160,6.0,14.0,70,0.00,,,-99.99,,2013-03-27 22:02:00,
2013-03-27 15:12:00,55.0,45.0,29.80,SSE,160,6.0,14.0,70,0.00,,,-99.99,,2013-03-27 22:12:00,
2013-03-27 15:23:00,55.0,45.0,29.80,SSE,160,6.0,14.0,70,0.00,,,-99.99,,2013-03-27 22:23:00,
2013-03-27 15:32:00,57.0,47.0,29.80,SSE,160,12.0,13.0,69,0.00,,,-99.99,,2013-03-27 22:32:00,
2013-03-27 15:42:00,57.0,47.0,29.80,SSE,160,12.0,13.0,69,0.00,,,-99.99,,2013-03-27 22:42:00,
2013-03-27 15:52:00,57.0,47.0,29.80,SSE,160,12.0,13.0,69,0.00,,,-99.99,,2013-03-27 22:52:00,
2013-03-27 16:02:00,58.0,48.0,29.79,SSW,200,6.0,13.0,70,0.00,,,-99.99,,2013-03-27 23:02:00,
2013-03-27 16:12:00,58.0,48.0,29.79,SSW,200,6.0,13.0,70,0.00,,,-99.99,,2013-03-27 23:12:00,
2013-03-27 16:22:00,57.0,48.0,29.78,SSW,210,6.0,11.0,71,0.00,,,-99.99,,2013-03-27 23:22:00,
2013-03-27 16:32:00,57.0,48.0,29.78,SSW,210,6.0,11.0,71,0.00,,,-99.99,,2013-03-27 23:32:00,
2013-03-27 16:42:00,57.0,48.0,29.78,SSW,210,6.0,11.0,71,0.00,,,-99.99,,2013-03-27 23:42:00,
2013-03-27 16:52:00,57.0,48.0,29.78,SSW,210,6.0,11.0,71,0.00,,,-99.99,,2013-03-27 23:52:00,
2013-03-27 17:01:00,56.0,48.0,29.81,SSW,210,6.0,9.0,74,0.00,,,-99.99,,2013-03-28 00:01:00,
2013-03-27 17:12:00,56.0,48.0,29.81,SSW,210,6.0,9.0,74,0.00,,,-99.99,,2013-03-28 00:12:00,
2013-03-27 17:22:00,55.0,47.0,29.83,SSW,210,11.0,12.0,73,0.00,,,-99.99,,2013-03-28 00:22:00,
2013-03-27 17:32:00,55.0,47.0,29.83,SSW,210,11.0,12.0,73,0.00,,,-99.99,,2013-03-28 00:32:00,
2013-03-27 17:43:00,55.0,47.0,29.83,SSW,210,11.0,12.0,73,0.00,,,-99.99,,2013-03-28 00:43:00,
2013-03-27 17:52:00,55.0,47.0,29.83,SSW,210,11.0,12.0,73,0.00,,,-99.99,,2013-03-28 00:52:00,
2013-03-27 18:01:00,53.0,45.0,29.90,SW,220,7.0,12.0,73,0.00,,,-99.99,,2013-03-28 01:01:00,
2013-03-27 18:12:00,53.0,45.0,29.90,SW,220,7.0,12.0,73,0.00,,,-99.99,,2013-03-28 01:12:00,
2013-03-27 18:22:00,52.0,43.0,29.91,SW,220,10.0,12.0,72,0.00,,,-99.99,,2013-03-28 01:22:00,
2013-03-27 18:32:00,52.0,43.0,29.91,SW,220,10.0,12.0,72,0.00,,,-99.99,,2013-03-28 01:32:00,
2013-03-27 18:42:00,52.0,43.0,29.91,SW,220,10.0,12.0,72,0.00,,,-99.99,,2013-03-28 01:42:00,
2013-03-27 18:52:00,52.0,43.0,29.91,SW,220,10.0,12.0,72,0.00,,,-99.99,,2013-03-28 01:52:00,
2013-03-27 19:02:00,51.0,44.0,29.92,SSW,210,7.0,11.0,76,0.00,,,-99.99,,2013-03-28 02:02:00,
2013-03-27 19:12:00,51.0,44.0,29.92,SSW,210,7.0,11.0,76,0.00,,,-99.99,,2013-03-28 02:12:00,
2013-03-27 19:22:00,50.0,44.0,29.93,SSW,210,5.0,7.0,79,0.00,,,-99.99,,2013-03-28 02:22:00,
2013-03-27 19:31:00,49.0,44.0,29.92,SSW,200,7.0,11.0,82,0.00,,,-99.99,,2013-03-28 02:31:00,
2013-03-27 19:32:00,50.0,44.0,29.93,SSW,210,5.0,7.0,79,0.00,,,-99.99,,2013-03-28 02:32:00,
2013-03-27 19:42:00,50.0,44.0,29.93,SSW,210,5.0,7.0,79,0.00,,,-99.99,,2013-03-28 02:42:00,
2013-03-27 19:52:00,50.0,44.0,29.93,SSW,210,5.0,7.0,79,0.00,,,-99.99,,2013-03-28 02:52:00,
2013-03-27 20:02:00,49.0,44.0,29.92,SSW,200,7.0,11.0,82,0.00,,,-99.99,,2013-03-28 03:02:00,
2013-03-27 20:12:00,49.0,44.0,29.92,SSW,200,7.0,11.0,82,0.00,,,-99.99,,2013-03-28 03:12:00,
2013-03-27 20:22:00,49.0,44.0,29.92,SSW,200,7.0,11.0,82,0.00,,,-99.99,,2013-03-28 03:22:00,
2013-03-27 20:53:00,49.0,45.0,29.94,SSW,200,5.0,6.0,85,0.00,,,-99.99,,2013-03-28 03:53:00,
2013-03-27 21:02:00,49.0,45.0,29.94,SSW,200,5.0,6.0,85,0.00,,,-99.99,,2013-03-28 04:02:00,
2013-03-27 21:12:00,49.0,45.0,29.94,SSW,200,5.0,6.0,85,0.00,,,-99.99,,2013-03-28 04:12:00,
2013-03-27 21:22:00,49.0,45.0,29.94,South,190,4.0,4.0,87,0.00,,,-99.99,,2013-03-28 04:22:00,
2013-03-27 21:32:00,49.0,45.0,29.94,South,190,4.0,4.0,87,0.00,,,-99.99,,2013-03-28 04:32:00,
2013-03-27 21:42:00,49.0,45.0,29.94,South,190,4.0,4.0,87,0.00,,,-99.99,,2013-03-28 04:42:00,
2013-03-27 21:52:00,49.0,45.0,29.94,South,190,4.0,4.0,87,0.00,,,-99.99,,2013-03-28 04:52:00,
2013-03-27 22:02:00,49.0,45.0,29.92,South,170,4.0,4.0,86,0.00,,,-99.99,,2013-03-28 05:02:00,
2013-03-27 22:12:00,49.0,45.0,29.92,South,170,4.0,4.0,86,0.00,,,-99.99,,2013-03-28 05:12:00,
2013-03-27 22:22:00,49.0,45.0,29.92,South,170,4.0,4.0,86,0.00,,,-99.99,,2013-03-28 05:22:00,
2013-03-27 22:32:00,49.0,44.0,29.94,SSE,160,5.0,7.0,83,0.00,,,-99.99,,2013-03-28 05:32:00,
2013-03-27 22:43:00,49.0,44.0,29.94,SSE,160,5.0,7.0,83,0.00,,,-99.99,,2013-03-28 05:43:00,
2013-03-27 22:52:00,49.0,44.0,29.94,SSE,160,5.0,7.0,83,0.00,,,-99.99,,2013-03-28 05:52:00,
2013-03-27 23:02:00,49.0,44.0,29.91,SSE,160,8.0,8.0,84,0.00,,,-99.99,,2013-03-28 06:02:00,
2013-03-27 23:12:00,49.0,44.0,29.91,SSE,160,8.0,8.0,84,0.00,,,-99.99,,2013-03-28 06:12:00,
2013-03-27 23:22:00,49.0,44.0,29.91,SSE,160,8.0,8.0,84,0.00,,,-99.99,,2013-03-28 06:22:00,
2013-03-27 23:32:00,49.0,45.0,29.91,SSE,150,2.0,5.0,86,0.00,,,-99.99,,2013-03-28 06:32:00,
2013-03-27 23:42:00,49.0,45.0,29.91,SSE,150,2.0,5.0,86,0.00,,,-99.99,,2013-03-28 06:42:00,
2013-03-27 23:52:00,49.0,45.0,29.91,SSE,150,2.0,5.0,86,0.00,,,-99.99,,2013-03-28 06:52:00,